CYBU

Nipawin  Airport

Nipawin, Saskatchewan, Canada
Issued Wind Visibility Ceiling Temperature Dew Point Humidity Barometer
Nov-20
11:00 UTC
020°
8 KTS
9 miles Overcast
2,000' AGL
-10° C
14° F
-12° C
10° F
85% 29.25" Hg
993.6 hPa
MVFR
Nov-20
10:00 UTC
020°
8 KTS
9 miles Overcast
2,000' AGL
-10° C
14° F
-12° C
10° F
85% 29.26" Hg
993.9 hPa
MVFR
Nov-20
09:26 UTC
010°
8 KTS
9 miles Broken
2,000' AGL
-10° C
14° F
-12° C
10° F
85% 29.28" Hg
994.6 hPa
MVFR
Nov-20
09:00 UTC
030°
8 KTS
9 miles Broken
17,000' AGL
-10° C
14° F
-12° C
10° F
85% 29.28" Hg
994.4 hPa
VFR
Nov-20
08:00 UTC
030°
7 KTS
9 miles Broken
20,000' AGL
-11° C
12° F
-13° C
F
85% 29.3" Hg
995.1 hPa
VFR
Nov-20
07:00 UTC
030°
7 KTS
9 miles Overcast
9,500' AGL
-10° C
14° F
-12° C
10° F
85% 29.32" Hg
995.8 hPa
VFR
Nov-20
06:00 UTC
030°
7 KTS
9 miles Broken
9,000' AGL
-10° C
14° F
-12° C
10° F
85% 29.36" Hg
997.2 hPa
VFR
Nov-20
05:00 UTC
050°
9 KTS
9 miles Overcast
9,000' AGL
-9° C
16° F
-12° C
10° F
79% 29.4" Hg
998.4 hPa
VFR
Nov-20
04:00 UTC
060°
10 KTS
9 miles Overcast
9,000' AGL
-10° C
14° F
-13° C
F
79% 29.44" Hg
999.9 hPa
VFR
Nov-20
03:00 UTC
050°
12 KTS
9 miles Overcast
9,500' AGL
-11° C
12° F
-13° C
F
85% 29.48" Hg
1001.3 hPa
VFR
Nov-20
02:00 UTC
040°
12 KTS
9 miles Overcast
11,000' AGL
-11° C
12° F
-13° C
F
85% 29.53" Hg
1003.1 hPa
VFR
Nov-20
01:00 UTC
040°
10 KTS
9 miles Overcast
11,000' AGL
-11° C
12° F
-13° C
F
85% 29.57" Hg
1004.6 hPa
VFR
Nov-20
00:00 UTC
040°
8 KTS
9 miles Overcast
12,000' AGL
-10° C
14° F
-13° C
F
79% 29.6" Hg
1005.5 hPa
VFR
Nov-19
23:00 UTC
040°
5 KTS
9 miles Overcast
13,000' AGL
-11° C
12° F
-14° C
F
79% 29.64" Hg
1006.8 hPa
VFR
Nov-19
22:00 UTC
050°
5 KTS
9 miles Broken
12,000' AGL
-11° C
12° F
-14° C
F
79% 29.66" Hg
1007.5 hPa
VFR
Nov-19
21:00 UTC
050°
6 KTS
9 miles Overcast
11,000' AGL
-10° C
14° F
-13° C
F
79% 29.7" Hg
1008.9 hPa
VFR
Nov-19
20:00 UTC
080°
5 KTS
9 miles Overcast
11,000' AGL
-10° C
14° F
-14° C
F
73% 29.74" Hg
1010.3 hPa
VFR
Nov-19
19:00 UTC
110°
6 KTS
9 miles Overcast
11,000' AGL
-10° C
14° F
-14° C
F
73% 29.77" Hg
1011.2 hPa
VFR
Nov-19
18:00 UTC
080°
5 KTS
9 miles Overcast
13,000' AGL
-11° C
12° F
-14° C
F
79% 29.79" Hg
1011.9 hPa
VFR
Nov-19
17:00 UTC
040°
3 KTS
9 miles   -11° C
12° F
-14° C
F
79% 29.82" Hg
1013 hPa
VFR
Nov-19
16:24 UTC
030°
2 KTS
9 miles   -12° C
10° F
-14° C
F
85% 29.82" Hg
1013.3 hPa
VFR
Nov-19
16:00 UTC
030°
2 KTS
9 miles Overcast
2,300' AGL
-11° C
12° F
-13° C
F
85% 29.82" Hg
1013 hPa
MVFR
Nov-19
15:34 UTC
9 miles Overcast
2,300' AGL
-11° C
12° F
-13° C
F
85% 29.83" Hg
1013.5 hPa
MVFR
Nov-19
15:00 UTC
9 miles Overcast
2,500' AGL
-12° C
10° F
-14° C
F
85% 29.82" Hg
1013.3 hPa
MVFR
Nov-19
14:00 UTC
020°
3 KTS
9 miles Overcast
2,500' AGL
-11° C
12° F
-13° C
F
85% 29.83" Hg
1013.7 hPa
MVFR
Nov-19
13:00 UTC
340°
3 KTS
9 miles Overcast
2,500' AGL
-11° C
12° F
-14° C
F
79% 29.85" Hg
1014.3 hPa
MVFR
Nov-19
12:38 UTC
330°
3 KTS
9 miles Overcast
2,500' AGL
-11° C
12° F
-13° C
F
85% 29.84" Hg
1014 hPa
MVFR
Nov-19
12:00 UTC
340°
3 KTS
9 miles Overcast
2,300' AGL
-11° C
12° F
-13° C
F
85% 29.85" Hg
1014.1 hPa
MVFR
Nov-19
11:56 UTC
350°
3 KTS
9 miles Overcast
2,300' AGL
-11° C
12° F
-13° C
F
85% 29.85" Hg
1014.1 hPa
MVFR